Temp
39 39 38 39 38 38 38 38 38 38 38 37 37 37 38 38 39 39 38 38 38 37 38 38 38 38 39 38 37 37 37 37 37 37 36 36 36 36 39 39 38 38
37 37 37 37 37 37 37 37 37 37 37 37 37 37 38 38 38 37 36 36 36 37 37 37 37 36 36 36 36 36 36 37 37 38 37 36 36 36 36 37 38 39
35 35 35 35 35 35 35 36 35 36 35 36 36 36 36 37 36 36 36 35 35 35 35 35 35 35 35 35 34 35 36 36 36 37 36 36 36 36 36 36 37 37
33 32 32 32 33 33 33 34 34 34 33 34 34 34 34 35 34 34 34 35 35 35 35 34 34 34 34 35 34 35 35 35 35 35 35 35 35 36 35 36 36 36
32 31 30 30 30 30 30 31 31 32 32 32 33 33 34 34 34 34 34 34 34 34 35 34 34 34 34 34 33 34 35 35 35 34 34 35 36 36 36 36 35 36
30 31 31 31 30 30 30 29 29 29 30 30 32 33 32 33 33 35 36 36 36 35 36 35 35 36 35 34 34 34 34 34 34 33 34 34 35 36 36 36 35 35
31 30 29 29 30 29 29 29 29 30 29 29 30 31 31 31 32 33 34 35 36 36 36 36 36 37 37 36 35 34 34 33 34 34 33 34 34 34 35 34 34 35
28 29 29 31 30 29 28 29 28 29 28 28 29 30 29 31 31 31 32 33 34 35 36 36 37 37 37 37 36 36 35 36 35 34 34 34 34 34 35 36 35 35
28 29 29 29 30 31 28 28 28 28 28 28 29 29 29 30 30 30 31 31 31 32 34 35 36 36 36 36 36 36 35 36 36 35 34 34 35 35 36 36 35 35
28 28 29 28 29 30 29 28 28 29 28 28 28 28 29 30 29 30 30 30 30 31 31 32 34 34 35 36 36 36 36 36 36 36 36 35 35 35 36 36 36 36
27 27 28 28 28 28 28 28 28 28 28 27 27 28 29 29 29 29 29 29 30 30 31 32 32 32 32 33 35 36 36 36 36 36 36 36 36 36 37 36 36 36
28 28 29 29 29 28 28 28 28 27 27 27 26 27 27 28 28 29 29 29 30 30 31 31 31 31 31 32 33 34 35 36 36 35 35 36 36 36 36 36 36 36
29 29 29 29 29 29 29 29 29 28 27 28 27 26 26 27 27 27 28 29 29 30 31 31 31 31 31 32 32 32 33 34 35 35 35 35 35 35 35 36 36 36
28 27 28 28 28 28 28 28 29 29 29 28 27 27 27 26 27 27 27 28 28 29 30 30 31 31 32 32 32 32 32 33 34 34 35 35 35 35 35 35 36 36
27 27 27 27 27 27 28 28 28 28 28 28 28 27 28 27 26 27 26 27 27 28 28 29 29 30 31 32 32 32 32 32 32 33 34 34 35 35 35 35 35 35
28 28 28 28 28 28 28 28 28 28 28 27 27 27 26 26 26 26 26 26 26 26 27 27 28 30 32 34 35 34 33 33 33 33 33 33 33 34 34 35 35 35
28 29 29 28 28 28 27 27 27 27 27 26 26 26 26 26 26 25 26 26 25 25 25 26 27 28 32 33 35 36 34 33 32 32 32 33 33 33 33 34 35 35
27 27 27 27 27 26 25 25 25 25 25 25 25 24 25 25 24 25 25 25 25 25 24 25 25 29 31 32 33 34 34 32 32 32 32 33 33 33 33 33 34 35
26 25 25 25 24 24 23 23 23 23 23 23 22 22 23 22 24 24 23 24 24 23 23 24 24 28 30 31 31 32 33 32 30 30 31 31 32 32 32 33 33 33
24 22 22 22 21 21 21 21 21 20 20 20 21 21 21 21 21 21 22 22 22 22 22 23 23 26 29 30 30 31 32 32 28 28 29 30 31 31 32 32 32 32
21 20 19 19 19 19 19 18 18 19 19 19 19 19 19 19 19 19 19 20 20 20 20 20 22 26 28 28 29 30 31 30 27 27 27 28 29 30 31 31 32 33
18 17 17 17 18 17 16 16 17 16 16 17 17 17 17 17 17 18 17 17 18 18 17 17 19 25 26 27 27 28 29 25 24 24 24 25 26 27 28 30 31 32
17 16 15 15 15 14 13 13 14 13 13 14 13 13 13 13 13 14 15 15 14 15 14 15 16 20 24 25 25 26 25 21 21 21 22 22 23 25 26 28 29 30
14 13 12 12 11 10 10 11 11 11 10 11 10 10 10 11 11 11 12 12 12 12 13 12 13 17 21 22 22 23 22 19 19 19 19 20 21 23 24 25 26 29
11 10 10 9 8 8 8 8 8 8 9 9 9 9 8 9 9 9 9 9 10 10 14 13 10 13 18 19 20 21 19 17 17 17 17 18 19 20 22 22 23 25
8 8 7 7 6 7 6 6 7 7 7 7 7 7 7 7 7 7 6 7 8 8 8 9 9 9 12 18 19 20 21 17 17 16 15 16 17 17 18 20 21 22
MSLP
1023.50 1023.58 1023.54 1023.38 1023.34 1023.26 1023.14 1023.02 1022.90 1022.82 1022.74 1022.66 1022.62 1022.54 1022.38 1022.18 1021.86 1021.58 1021.38 1021.10 1020.90 1020.70 1020.54 1020.34 1020.14 1019.94 1019.82 1019.70 1019.62 1019.58 1019.54 1019.46 1019.42 1019.34 1019.22 1019.18 1019.06 1018.98 1018.74 1018.58 1018.50 1018.38
1023.86 1023.90 1023.82 1023.66 1023.46 1023.38 1023.34 1023.34 1023.26 1023.18 1023.10 1023.02 1022.98 1022.86 1022.58 1022.34 1022.10 1021.94 1021.70 1021.42 1021.14 1020.90 1020.70 1020.50 1020.34 1020.14 1019.90 1019.70 1019.54 1019.54 1019.50 1019.46 1019.34 1019.26 1019.22 1019.10 1019.02 1018.94 1018.74 1018.62 1018.34 1018.26
1024.22 1024.18 1024.10 1023.94 1023.82 1023.70 1023.66 1023.58 1023.50 1023.42 1023.34 1023.26 1023.10 1022.98 1022.82 1022.62 1022.42 1022.18 1021.98 1021.74 1021.50 1021.18 1020.90 1020.66 1020.38 1020.18 1019.98 1019.78 1019.58 1019.50 1019.46 1019.38 1019.30 1019.14 1019.14 1019.06 1018.98 1018.94 1018.74 1018.62 1018.42 1018.22
1024.38 1024.38 1024.22 1024.02 1023.94 1023.82 1023.82 1023.74 1023.66 1023.62 1023.50 1023.34 1023.26 1023.18 1023.10 1022.90 1022.74 1022.46 1022.18 1021.90 1021.70 1021.34 1021.06 1020.78 1020.50 1020.22 1019.98 1019.82 1019.66 1019.50 1019.34 1019.30 1019.22 1019.18 1019.10 1018.94 1018.86 1018.74 1018.62 1018.54 1018.34 1018.18
1024.42 1024.30 1024.18 1024.06 1024.02 1023.98 1023.94 1023.86 1023.78 1023.74 1023.66 1023.66 1023.46 1023.30 1023.14 1022.98 1022.82 1022.62 1022.42 1022.14 1021.94 1021.70 1021.34 1021.02 1020.66 1020.34 1020.06 1019.78 1019.66 1019.54 1019.34 1019.22 1019.06 1019.02 1018.98 1018.82 1018.62 1018.58 1018.38 1018.34 1018.18 1018.02
1024.42 1024.42 1024.26 1024.14 1024.06 1023.98 1023.90 1023.86 1023.90 1023.86 1023.86 1023.74 1023.66 1023.54 1023.30 1023.14 1022.98 1022.74 1022.50 1022.26 1022.02 1021.82 1021.50 1021.22 1020.90 1020.58 1020.26 1019.94 1019.66 1019.46 1019.30 1019.14 1018.98 1018.94 1018.90 1018.74 1018.50 1018.34 1018.26 1018.14 1017.98 1017.86
1024.42 1024.38 1024.30 1024.30 1024.10 1024.06 1023.90 1023.82 1023.82 1023.82 1023.78 1023.82 1023.74 1023.58 1023.46 1023.30 1023.06 1022.90 1022.66 1022.46 1022.22 1021.90 1021.66 1021.38 1021.02 1020.66 1020.30 1020.06 1019.78 1019.54 1019.26 1019.10 1018.86 1018.78 1018.70 1018.58 1018.46 1018.18 1018.10 1017.98 1017.86 1017.66
1024.46 1024.38 1024.38 1024.26 1024.14 1024.06 1023.86 1023.78 1023.74 1023.70 1023.70 1023.66 1023.54 1023.50 1023.42 1023.26 1023.06 1022.82 1022.62 1022.38 1022.10 1021.82 1021.58 1021.34 1021.06 1020.74 1020.38 1020.10 1019.82 1019.58 1019.30 1019.10 1018.94 1018.70 1018.54 1018.34 1018.18 1018.02 1017.82 1017.70 1017.58 1017.42
1024.46 1024.38 1024.34 1024.22 1024.14 1024.02 1023.86 1023.74 1023.74 1023.66 1023.66 1023.58 1023.50 1023.42 1023.30 1023.14 1022.94 1022.70 1022.46 1022.22 1021.98 1021.74 1021.50 1021.30 1021.06 1020.78 1020.46 1020.18 1019.90 1019.66 1019.42 1019.14 1018.90 1018.74 1018.54 1018.30 1018.06 1017.78 1017.54 1017.38 1017.22 1017.10
1024.54 1024.46 1024.38 1024.26 1024.18 1024.10 1023.98 1023.82 1023.78 1023.70 1023.62 1023.54 1023.42 1023.34 1023.18 1022.98 1022.82 1022.58 1022.34 1022.10 1021.86 1021.54 1021.38 1021.18 1020.94 1020.74 1020.46 1020.18 1019.94 1019.62 1019.38 1019.14 1018.90 1018.66 1018.38 1018.10 1017.90 1017.62 1017.42 1017.22 1016.98 1016.74
1024.42 1024.42 1024.34 1024.30 1024.30 1024.22 1024.14 1023.98 1023.86 1023.78 1023.66 1023.54 1023.42 1023.30 1023.18 1023.02 1022.78 1022.62 1022.38 1022.18 1021.94 1021.66 1021.34 1021.14 1020.90 1020.66 1020.38 1020.06 1019.82 1019.54 1019.26 1018.98 1018.74 1018.46 1018.14 1017.82 1017.50 1017.26 1017.06 1016.94 1016.74 1016.54
1024.26 1024.18 1024.10 1024.10 1024.06 1024.02 1023.98 1023.90 1023.86 1023.74 1023.62 1023.54 1023.46 1023.30 1023.22 1023.14 1022.94 1022.74 1022.58 1022.22 1021.94 1021.70 1021.46 1021.18 1020.94 1020.66 1020.34 1020.02 1019.62 1019.30 1018.98 1018.66 1018.38 1018.14 1017.82 1017.50 1017.14 1016.86 1016.70 1016.54 1016.38 1016.18
1024.14 1024.14 1024.14 1024.06 1024.02 1023.94 1023.86 1023.74 1023.66 1023.58 1023.50 1023.38 1023.30 1023.22 1023.10 1022.94 1022.82 1022.66 1022.42 1022.26 1021.98 1021.70 1021.42 1021.10 1020.74 1020.42 1020.10 1019.74 1019.38 1019.10 1018.78 1018.38 1018.02 1017.70 1017.46 1017.18 1016.86 1016.58 1016.34 1016.18 1016.02 1015.82
1024.22 1024.26 1024.14 1024.10 1024.06 1024.02 1023.94 1023.82 1023.70 1023.50 1023.38 1023.26 1023.18 1023.06 1022.94 1022.82 1022.66 1022.50 1022.26 1022.10 1021.86 1021.58 1021.26 1020.98 1020.66 1020.18 1019.78 1019.42 1019.06 1018.70 1018.34 1018.02 1017.74 1017.38 1017.06 1016.70 1016.42 1016.18 1015.98 1015.74 1015.54 1015.34
1024.26 1024.22 1024.18 1024.10 1024.06 1023.98 1023.86 1023.74 1023.66 1023.54 1023.38 1023.22 1023.10 1022.98 1022.82 1022.66 1022.50 1022.30 1022.06 1021.74 1021.54 1021.42 1021.10 1020.78 1020.46 1019.98 1019.50 1019.14 1018.78 1018.34 1018.06 1017.62 1017.26 1016.86 1016.50 1016.10 1015.74 1015.50 1015.30 1015.18 1014.98 1014.82
1024.10 1024.06 1023.98 1023.94 1023.90 1023.78 1023.66 1023.58 1023.46 1023.34 1023.22 1023.10 1022.98 1022.86 1022.70 1022.54 1022.30 1022.06 1021.90 1021.66 1021.30 1020.90 1020.70 1020.46 1020.06 1019.54 1019.02 1018.70 1018.46 1018.10 1017.66 1017.30 1016.94 1016.54 1016.18 1015.74 1015.30 1014.86 1014.54 1014.42 1014.30 1014.18
1024.02 1023.94 1023.90 1023.86 1023.78 1023.74 1023.58 1023.50 1023.34 1023.22 1023.10 1022.94 1022.74 1022.58 1022.42 1022.22 1022.06 1021.82 1021.58 1021.38 1021.18 1020.90 1020.42 1020.02 1019.58 1019.06 1018.54 1018.22 1017.90 1017.62 1017.38 1016.94 1016.54 1016.10 1015.82 1015.42 1015.10 1014.70 1014.22 1013.82 1013.54 1013.46
1024.26 1024.18 1024.10 1023.98 1023.90 1023.78 1023.66 1023.58 1023.46 1023.34 1023.18 1022.98 1022.78 1022.50 1022.26 1022.06 1021.86 1021.58 1021.30 1021.06 1020.86 1020.58 1020.26 1019.78 1019.26 1018.70 1018.22 1017.90 1017.58 1017.26 1017.02 1016.74 1016.30 1015.82 1015.34 1014.94 1014.58 1014.22 1013.82 1013.54 1013.22 1012.94
1024.50 1024.46 1024.30 1024.18 1024.10 1024.02 1023.90 1023.78 1023.62 1023.42 1023.22 1023.06 1022.90 1022.62 1022.38 1022.06 1021.66 1021.42 1021.06 1020.78 1020.58 1020.26 1019.86 1019.38 1018.94 1018.30 1017.90 1017.78 1017.50 1017.18 1016.86 1016.58 1016.22 1015.74 1015.18 1014.58 1014.14 1013.78 1013.42 1013.06 1012.78 1012.54
1024.70 1024.66 1024.58 1024.50 1024.46 1024.34 1024.22 1024.06 1023.94 1023.74 1023.50 1023.30 1023.06 1022.62 1022.30 1021.98 1021.62 1021.34 1020.98 1020.66 1020.34 1020.06 1019.66 1019.14 1018.58 1018.02 1017.78 1017.62 1017.42 1017.18 1016.86 1016.54 1016.10 1015.66 1015.02 1014.42 1013.86 1013.42 1013.02 1012.62 1012.26 1012.02
1024.86 1024.86 1024.86 1024.78 1024.74 1024.66 1024.54 1024.38 1024.22 1023.94 1023.66 1023.46 1023.26 1022.86 1022.50 1022.14 1021.70 1021.34 1020.86 1020.46 1020.14 1019.90 1019.58 1018.98 1018.26 1017.86 1017.70 1017.54 1017.34 1017.10 1016.78 1016.50 1016.10 1015.62 1014.94 1014.26 1013.62 1013.14 1012.74 1012.30 1011.86 1011.46
1025.14 1025.18 1025.18 1025.10 1024.98 1024.82 1024.74 1024.54 1024.30 1024.18 1023.94 1023.66 1023.46 1023.02 1022.70 1022.34 1021.78 1021.54 1020.90 1020.42 1020.06 1019.90 1019.62 1018.98 1018.18 1017.86 1017.78 1017.66 1017.30 1016.90 1016.58 1016.22 1015.86 1015.46 1014.94 1014.34 1013.58 1012.98 1012.42 1011.98 1011.58 1011.14
1025.50 1025.50 1025.38 1025.30 1025.18 1025.06 1024.86 1024.70 1024.50 1024.18 1024.02 1023.98 1023.70 1023.18 1022.82 1022.38 1022.06 1021.54 1021.02 1020.62 1020.14 1019.94 1019.82 1019.14 1018.34 1017.94 1017.98 1017.74 1017.30 1016.86 1016.50 1016.10 1015.66 1015.10 1014.50 1013.90 1013.26 1012.74 1012.18 1011.74 1011.30 1010.94
1025.82 1025.86 1025.74 1025.58 1025.50 1025.38 1025.10 1024.82 1024.66 1024.50 1024.30 1024.10 1023.86 1023.26 1022.66 1022.30 1022.02 1021.42 1020.90 1020.70 1020.42 1020.06 1019.94 1019.42 1018.46 1018.02 1018.14 1017.94 1017.58 1017.10 1016.74 1016.18 1015.50 1014.86 1014.06 1013.42 1012.58 1012.22 1011.94 1011.54 1011.02 1010.70
1026.10 1026.14 1026.10 1025.94 1025.78 1025.54 1025.38 1025.14 1024.82 1024.58 1024.18 1023.98 1023.66 1023.30 1022.66 1022.22 1021.90 1021.46 1020.70 1020.38 1020.42 1020.30 1019.82 1019.54 1018.86 1018.30 1018.26 1018.10 1017.54 1016.94 1016.50 1016.02 1015.38 1014.62 1013.78 1012.98 1012.46 1011.70 1011.30 1010.90 1010.42 1010.06
1026.38 1026.34 1026.22 1026.18 1025.94 1025.58 1025.42 1025.18 1024.82 1024.42 1024.06 1023.78 1023.34 1023.06 1022.54 1021.94 1021.66 1021.26 1020.62 1019.94 1020.06 1020.06 1019.62 1019.38 1018.98 1018.22 1018.06 1017.86 1017.22 1016.54 1016.06 1015.66 1015.02 1014.38 1013.58 1012.98 1012.50 1011.94 1011.06 1010.18 1009.86 1009.42
Wind_Speed
8 7 7 7 7 6 7 8 7 8 7 7 7 7 7 7 8 8 8 8 7 7 7 7 6 6 6 5 5 5 5 6 6 6 6 6 6 6 8 8 8 8
9 8 7 6 7 7 7 6 7 7 7 7 7 7 7 8 9 7 8 8 8 8 7 7 7 7 6 5 5 5 6 6 7 6 6 6 7 6 8 8 9 8
6 7 7 7 7 7 7 7 6 6 7 7 6 6 7 6 8 8 8 8 7 7 7 6 7 7 6 6 5 4 5 6 7 7 6 7 7 7 7 7 7 8
5 4 4 5 5 5 5 6 7 6 6 8 7 7 6 7 7 8 8 9 8 9 8 7 6 6 6 6 6 6 5 5 6 6 6 7 6 7 7 7 7 7
2 3 3 4 3 4 4 5 6 6 6 5 6 7 7 8 8 8 8 9 7 8 8 9 8 8 6 6 5 6 6 6 6 6 6 7 7 7 7 6 7 9
3 2 3 2 2 2 4 3 4 4 5 5 6 6 6 6 7 7 8 9 9 9 9 8 8 8 7 7 7 6 6 6 7 5 6 7 8 7 6 6 7 8
3 4 4 3 4 2 3 3 3 3 4 3 4 6 5 6 5 6 7 7 8 8 8 9 9 9 8 7 7 7 7 6 6 6 6 7 7 8 7 6 8 9
4 4 4 5 5 4 4 4 3 4 4 4 4 4 4 6 6 5 5 7 6 7 8 8 9 9 9 8 8 8 7 6 6 7 7 8 6 8 8 7 7 9
3 3 4 4 5 5 5 5 4 4 4 3 4 5 4 5 6 6 6 6 6 6 6 7 8 8 8 8 9 8 8 8 7 7 7 8 8 9 9 8 8 8
3 3 4 4 4 4 5 5 4 4 4 4 4 4 6 6 5 6 6 7 7 7 7 7 8 8 8 8 9 9 9 9 9 8 8 8 8 9 8 8 9 9
4 3 4 4 4 4 4 4 4 4 4 4 4 5 5 7 8 6 7 7 7 8 8 8 8 8 8 9 9 9 9 9 9 9 9 9 9 9 8 9 9 10
5 6 6 6 6 6 5 5 5 4 5 4 4 5 5 5 6 6 6 8 8 8 8 9 8 8 8 9 9 10 10 9 9 9 10 10 10 9 9 8 9 10
6 6 6 6 7 7 7 7 7 6 5 6 5 5 6 7 6 7 7 7 9 9 9 10 10 9 9 10 10 9 9 10 10 10 10 9 9 10 9 9 9 10
5 4 5 6 6 6 7 7 8 8 8 7 6 7 7 7 8 8 8 7 9 9 9 9 11 12 11 11 10 10 10 10 10 11 11 11 10 10 10 10 10 10
4 4 4 5 5 6 7 7 7 7 8 9 8 8 8 8 8 9 10 11 10 9 11 10 11 11 10 10 11 12 11 12 12 13 13 13 12 12 11 11 11 10
5 6 6 6 7 8 8 8 8 9 9 9 10 9 8 9 9 10 10 11 13 13 12 11 11 10 12 21 19 14 13 12 12 13 13 13 14 14 13 12 12 12
8 8 8 9 9 9 9 9 10 9 10 11 11 10 10 10 10 11 12 12 13 13 15 13 12 12 23 25 25 26 18 14 14 13 13 14 13 14 15 15 14 13
7 8 9 10 9 9 9 8 8 10 11 11 11 11 11 10 12 13 13 13 12 13 14 15 14 18 27 26 27 27 24 17 14 14 14 14 14 15 14 13 14 14
7 7 8 9 8 8 7 8 10 11 11 10 10 9 10 12 14 14 14 14 14 15 15 16 15 21 27 28 27 27 28 23 14 15 16 15 16 16 16 16 14 13
6 6 7 7 6 7 8 9 9 10 9 8 9 11 12 13 14 15 15 15 15 15 15 16 17 21 28 28 27 28 28 25 16 16 17 17 17 17 16 17 17 16
6 5 6 6 6 7 8 9 9 10 11 10 10 12 13 13 14 15 15 15 15 14 14 16 16 27 29 30 29 30 30 25 16 15 15 16 17 17 17 17 18 17
4 6 7 8 9 9 9 10 10 10 11 10 10 11 11 12 13 13 15 16 15 14 15 17 18 29 29 30 31 30 31 19 13 14 14 15 17 18 18 17 16 17
6 7 9 9 9 10 11 11 11 12 11 8 11 12 13 13 13 13 13 15 16 15 15 16 17 23 28 29 29 32 26 16 15 15 14 16 17 16 16 15 16 15
6 6 8 9 9 10 12 12 11 10 10 9 11 13 14 13 12 14 14 13 14 15 13 15 17 22 30 30 32 32 27 19 14 14 16 16 17 17 14 13 16 30
4 5 7 8 10 11 10 12 12 11 11 10 10 11 13 12 12 13 13 12 10 13 22 23 18 22 29 29 30 30 24 16 15 14 15 16 15 15 15 14 15 20
4 6 7 8 10 11 10 10 10 11 11 11 11 10 12 12 12 12 15 14 11 11 12 14 15 16 19 29 28 28 28 18 14 13 15 17 17 17 17 15 14 14
Wind_Direction
35 31 29 30 29 27 25 22 18 21 15 10 13 356 355 341 346 352 351 351 351 346 338 331 324 318 310 310 307 309 302 290 292 282 275 267 265 258 256 252 243 233
26 24 22 22 24 22 21 24 18 22 11 11 3 353 351 352 350 355 350 351 350 347 342 339 329 318 310 308 307 312 304 303 296 292 288 282 271 264 262 259 255 253
25 26 24 27 23 15 11 9 16 11 12 359 356 3 350 353 349 349 350 350 345 341 340 337 336 330 317 306 304 303 295 294 293 289 289 283 281 276 268 264 265 259
21 24 28 23 25 18 11 14 6 7 2 4 359 347 352 342 347 346 345 349 347 342 339 338 338 331 331 319 312 305 292 286 276 284 289 288 278 270 273 268 267 270
29 14 20 30 17 22 20 18 6 360 358 347 347 349 348 350 347 345 345 340 345 338 337 337 334 334 333 330 323 309 300 294 292 290 286 283 280 278 273 270 270 270
345 350 5 13 16 40 25 19 358 355 346 351 341 333 340 342 343 341 340 340 338 339 335 334 333 327 332 329 329 317 306 303 290 291 288 281 282 278 274 272 272 271
341 356 355 347 356 5 18 358 349 348 341 322 335 341 335 335 334 333 330 329 328 331 332 331 332 328 328 327 324 319 313 300 298 294 285 280 276 280 276 270 269 269
347 0 6 1 353 343 344 345 344 339 323 343 343 318 336 323 324 324 324 324 326 323 326 325 324 325 323 327 322 318 312 308 302 297 291 286 281 278 275 270 265 268
351 357 5 354 359 338 334 327 328 327 323 338 323 322 323 319 314 318 315 317 314 312 316 319 318 316 316 318 315 312 307 304 298 292 286 286 284 276 276 275 274 268
340 325 2 339 355 329 324 311 316 323 318 329 318 326 324 315 316 311 315 313 313 309 311 310 310 308 309 307 304 302 301 299 297 292 285 277 274 276 276 273 270 275
346 341 342 336 328 315 307 300 304 307 307 304 313 316 315 318 319 322 316 314 308 306 306 306 302 299 298 298 296 294 291 290 289 288 284 280 274 271 270 269 270 267
341 346 341 338 333 328 323 309 304 307 302 298 298 303 303 300 301 306 305 304 305 301 298 293 291 288 285 285 285 286 286 284 284 282 281 279 279 275 270 265 265 266
339 333 329 328 328 324 323 325 321 317 315 309 307 301 304 308 307 306 305 301 300 300 296 295 294 289 286 284 282 277 273 277 280 280 275 273 272 272 270 267 262 263
305 304 311 311 313 317 317 316 315 316 317 312 314 312 307 306 307 305 301 302 299 298 296 296 295 293 289 285 280 278 277 276 275 273 272 269 267 263 263 263 262 260
292 294 292 300 304 307 309 307 307 305 308 311 311 308 306 304 304 303 305 304 298 295 298 296 292 287 287 285 287 285 281 280 280 278 278 275 268 265 263 262 261 258
314 309 310 311 312 311 308 307 306 307 306 305 304 301 300 301 301 301 301 301 303 302 297 294 290 288 279 282 283 282 282 279 278 276 272 270 274 276 272 263 259 261
322 317 317 315 310 308 305 306 306 308 309 306 303 302 301 301 299 299 299 297 297 297 297 295 290 287 288 289 289 287 285 284 280 278 276 273 268 266 269 271 269 260
313 311 310 305 309 303 303 304 307 307 305 302 301 303 302 301 299 296 294 294 293 292 289 289 289 287 288 291 291 291 290 287 286 284 280 275 273 271 269 266 264 264
305 302 300 300 302 305 307 311 309 304 301 302 300 298 300 298 295 295 293 292 289 289 288 287 286 286 288 290 291 291 291 291 287 284 282 279 275 272 272 272 270 265
299 298 295 298 306 310 312 309 308 301 299 299 301 300 297 296 294 291 291 288 286 286 286 286 284 285 288 290 291 292 292 292 289 287 285 281 278 275 273 272 270 269
305 306 307 311 314 312 308 301 297 297 297 299 300 295 297 295 294 295 291 288 288 287 287 285 283 287 291 294 296 296 295 295 289 286 283 281 280 278 274 272 270 269
327 322 318 315 310 307 302 298 297 296 297 302 298 293 292 290 289 288 288 290 290 290 290 288 288 290 294 298 298 298 298 296 290 285 282 280 278 278 276 273 271 267
332 321 313 310 307 305 302 300 302 302 301 306 298 293 292 290 289 288 288 290 291 292 291 289 289 293 298 299 300 300 301 298 294 287 279 277 273 271 272 273 273 273
320 314 308 307 307 302 301 301 302 298 296 300 293 295 292 290 291 290 286 285 288 292 293 294 293 297 300 302 301 299 297 295 293 289 284 281 279 276 275 274 273 274
314 310 305 304 301 298 299 298 299 296 294 294 287 286 286 289 288 286 285 281 280 285 291 291 292 295 297 298 297 296 295 289 287 283 282 280 282 281 276 270 269 270
308 303 297 297 295 294 292 289 292 293 292 292 288 284 285 286 284 282 282 282 282 278 277 278 282 285 291 297 297 296 296 294 285 282 282 286 287 288 290 283 276 275